Flag for Colombia Weather past 2 weeks in Bogota, Colombia

Now
55 °F

Scattered clouds.


Feels Like: 54 °F
Forecast: 49 / 59 °F
Wind: 6 mph from Northeast

Location: Bogota / Eldorado

Current Time: Feb 1, 2015 at 7:55:18 AM

Latest Report: Feb 1, 2015 at 7:00 AM


Visibility: N/A

Pressure: 30.34 "Hg

Humidity: 82%

Dew point: 50 °F

Location of BogotaLocation

Historic Weather in Bogota — Graph

°F

Bogota temperature yesterday

Maximum temperature yesterday: 64 °F (at 2:00 PM)
Minimum temperature yesterday: 52 °F (at 3:00 AM)
Average temperature yesterday: 58 °F

Past Weeks' High & Low Weather Summary

 TemperatureHumidityPressure
High70 °F (Jan 25, 1:00 PM)100% (Jan 17, 6:00 AM)30.40 "Hg (Jan 17, 6:00 AM)
Low37 °F (Jan 30, 5:00 AM)38% (Jan 25, 12:00 PM)30.19 "Hg (Jan 25, 4:00 PM)
Average57 °F77%30.30 "Hg
* Reported Jan 17 6:00 AM — Feb 1 6:00 AM, Bogota, Weather by CustomWeather, © 2014

Note: Actual official high and low records may vary slightly from our data, if they occured in-between our weather recording intervals... More about our weather records

Advertising

Bogota weather history for previous 24 hours

 ConditionsComfort  
Time TempWeatherWind HumidityBarometerVisibility
6:00 AM
Feb 1
54 °FPassing clouds.5 mph88%30.31 "HgN/A
5:00 AM54 °FPassing clouds.5 mph88%30.30 "HgN/A
4:00 AM54 °FPassing clouds.7 mph88%30.29 "HgN/A
3:00 AM54 °FPassing clouds.6 mph88%30.29 "HgN/A
2:00 AM54 °FPassing clouds.6 mph88%30.30 "HgN/A
1:00 AM54 °FPassing clouds.5 mph88%30.33 "Hg4 mi
12:00 AM54 °FPassing clouds.6 mph88%30.34 "Hg4 mi
11:00 PM
Jan 31
54 °FPassing clouds.2 mph88%30.34 "HgN/A
10:00 PM57 °FPassing clouds.9 mph72%30.35 "HgN/A
9:00 PM55 °FPassing clouds.3 mph77%30.33 "HgN/A
8:00 PM55 °FPassing clouds.5 mph77%30.30 "HgN/A
7:00 PM57 °FPassing clouds.2 mph67%30.27 "HgN/A
6:00 PM61 °FPassing clouds.2 mph59%30.24 "HgN/A
5:00 PM63 °FScattered clouds.9 mph56%30.24 "HgN/A
4:00 PM64 °FScattered clouds.5 mph56%30.24 "HgN/A
3:00 PM63 °FPartly sunny.12 mph59%30.26 "HgN/A
2:00 PM64 °FPartly sunny.9 mph56%30.28 "HgN/A
1:00 PM63 °FScattered showers. Partly sunny.10 mph59%30.30 "HgN/A
12:00 PM63 °FScattered showers. Partly sunny.12 mph64%30.32 "HgN/A
11:00 AM61 °FScattered showers. Scattered clouds.10 mph72%30.35 "HgN/A
10:00 AM59 °FScattered clouds.7 mph72%30.36 "Hg6 mi
9:00 AM59 °FScattered showers. Scattered clouds.9 mph72%30.36 "HgN/A
8:00 AM59 °FScattered showers. Scattered clouds.10 mph72%30.34 "HgN/A
7:00 AM54 °FScattered clouds.5 mph88%30.31 "HgN/A
Weather by CustomWeather, © 2014

See weather overviewHow to use our weather pages